COSMOS 2433 (720)

Last updated on Wed Oct 29 2025 00:03:19 GMT+0000 (Coordinated Universal Time)

1 32275U 07052A 25301.57140536 -.00000014 00000+0 00000+0 0 9999 2 32275 65.7065 323.7238 0005953 242.2995 117.6929 2.13104157140120
UTC large
Height (km)
Speed (km/s)
/
Latitude / Longitude
Inclination (degrees)
Orbital Period (minutes)
Azimuth
Elevation
Range (km)
Doppler Factor

Next 0 passes for location: London (51.5072 / 0.1276)

Sorry there are no passes over London.